[[{"header":{"parameterUnit":"m.s-1","parameterCategory":1,"la1":30.2991,"la2":30.254,"lo1":-89.0895,"lo2":-89.0444,"dy":0.0017,"dx":0.0017,"nx":28,"ny":28,"refTime":"2024-03-23T21:00:00:Z","depth":0,"parameterNumber":2,"parameterNumberName":"U-component_of_WINDS"},"data":[0,0,0,0,0,0,0,0,0,0,0,0,0,0,0,0,0,0,0,0,0,0,0,0,0,0,0,0,0,0,0,0,0,0,0,0,0,0,0,0,0,0,0,0,0,0,0,0,0,0,0,0,0,0,0,0,0,0,-1.26,-1.26,0,-1.2597,-1.2597,-1.2597,-1.2529,-1.2527,-1.2525,-1.2523,-1.2524,-1.2526,-1.2527,0,0,0,0,0,0,0,0,0,0,0,0,0,-1.2548,-1.255,-1.26,-1.26,-1.26,-1.2597,-1.2597,-1.2597,-1.2529,-1.2527,-1.2525,-1.2523,-1.2523,-1.2525,-1.2527,0,0,0,0,0,0,0,0,0,0,0,0,0,-1.2561,-1.255,-1.26,-1.2565,-1.2562,-1.2597,-1.2597,-1.2597,-1.2529,-1.2527,-1.2524,-1.2521,-1.2523,-1.2525,-1.2528,-1.2596,0,0,-1.2535,-1.2536,0,0,0,0,0,0,0,0,-1.256,-1.2563,-1.257,-1.2568,-1.2564,-1.256,-1.2579,-1.2597,-1.253,-1.2542,-1.2523,-1.252,-1.2538,-1.2539,-1.2545,-1.2596,-1.2596,-1.2535,-1.2537,-1.2538,-1.2539,0,0,0,0,0,0,0,-1.2559,-1.2562,-1.2599,-1.2571,-1.2567,-1.2551,-1.255,-1.2582,-1.2555,-1.2541,-1.2536,-1.2536,-1.2536,-1.2543,-1.2544,-1.2596,-1.2535,-1.2538,-1.2539,-1.254,-1.2704,-1.2707,0,0,0,0,0,0,-1.2563,-1.2562,-1.2599,-1.2599,-1.2555,-1.2554,-1.2552,-1.2564,-1.2555,-1.2551,-1.2538,-1.2533,-1.254,-1.2542,-1.2544,-1.2625,-1.2538,-1.254,-1.2542,-1.2701,-1.2705,-1.2708,0,0,0,0,0,0,-1.2562,-1.2567,-1.2599,-1.2579,-1.2582,-1.2557,-1.2571,-1.2566,-1.2572,-1.2553,-1.2548,-1.255,-1.2538,-1.2541,-1.2584,-1.2624,-1.2542,-1.2544,-1.2698,-1.2702,-1.2706,-1.2786,0,0,0,0,0,0,-1.2561,-1.2567,-1.2592,-1.258,-1.2583,-1.2638,-1.2574,-1.2568,-1.2576,-1.2569,-1.2562,-1.2559,-1.2536,-1.258,-1.2586,-1.2626,-1.2546,-1.2694,-1.27,-1.2705,-1.278,-1.2793,-1.2804,0,0,0,0,0,-1.2559,-1.2616,-1.2594,-1.2599,-1.2614,-1.2641,-1.2643,-1.2614,-1.258,-1.2606,-1.2593,-1.2559,-1.2618,-1.2585,-1.2591,-1.2632,-1.2692,-1.2698,-1.2705,-1.2775,-1.279,-1.2803,0,0,0,0,0,0,-1.2635,-1.2614,-1.2589,-1.2643,-1.2644,-1.2629,-1.2661,-1.2631,-1.2643,-1.2636,-1.2601,-1.26,-1.2649,-1.2644,-1.2609,-1.2698,-1.2649,-1.2657,-1.27,-1.2715,-1.2726,-1.2728,-1.2548,0,0,0,0,0,-1.2658,-1.268,-1.266,-1.271,-1.2711,-1.2686,-1.2696,-1.2674,-1.2674,-1.2675,-1.2665,-1.2667,-1.2686,-1.27,-1.2716,-1.2778,-1.2776,-1.2809,-1.2821,-1.2831,-1.2839,-1.2872,-1.2887,-1.2729,-1.2729,-1.2729,0,0,-1.2706,-1.2697,-1.2713,-1.2725,-1.2723,-1.2748,-1.2687,-1.2716,-1.2734,-1.2679,-1.272,-1.2713,-1.2712,-1.2765,-1.2788,-1.2763,-1.2881,-1.2839,-1.2847,-1.285,-1.288,-1.2895,-1.2908,-1.2733,-1.2733,-1.2732,0,0,-1.2806,-1.2801,-1.2842,-1.2841,-1.2838,-1.282,-1.283,-1.2819,-1.2812,-1.2851,-1.281,-1.2832,-1.2865,-1.2867,-1.2872,-1.2971,-1.294,-1.2977,-1.304,-1.3073,-1.3085,-1.3096,-1.3133,-1.3146,-1.2984,-1.2985,-1.2985,0,-1.2867,-1.2902,-1.2867,-1.2898,-1.2905,-1.2854,-1.2896,-1.2897,-1.29,-1.2906,-1.2877,-1.2917,-1.2914,-1.2967,-1.2991,-1.2996,-1.3007,-1.2979,-1.3086,-1.3096,-1.3106,-1.3141,-1.3155,-1.2989,-1.2989,-1.2988,-1.2988,0,-1.2977,-1.3001,-1.3035,-1.3038,-1.3048,-1.3084,-1.3056,-1.307,-1.3047,-1.3032,-1.3073,-1.3066,-1.3081,-1.3091,-1.3069,-1.3141,-1.3125,-1.3092,-1.3042,-1.3126,-1.3158,-1.3171,-1.2996,-1.2994,-1.2993,-1.2992,0,0,-1.3129,-1.311,-1.3123,-1.3124,-1.3116,-1.3135,-1.3168,-1.3181,-1.3195,-1.3197,-1.3226,-1.3254,-1.3223,-1.3229,-1.3205,-1.3234,-1.3314,-1.3196,-1.3196,-1.322,-1.3395,-1.3422,-1.3438,-1.3292,-1.3295,-1.3297,-1.3395,0,-1.3227,-1.3283,-1.3252,-1.3314,-1.3336,-1.3287,-1.3317,-1.3316,-1.3303,-1.332,-1.3306,-1.3327,-1.3283,-1.3286,-1.3312,-1.3299,-1.3349,-1.3291,-1.3321,-1.3322,-1.3325,-1.3455,-1.3484,-1.3578,-1.3408,-1.341,-1.3411,0,-1.335,-1.3357,-1.3421,-1.3408,-1.3416,-1.3443,-1.3452,-1.3469,-1.3466,-1.3455,-1.3461,-1.343,-1.3463,-1.3412,-1.3457,-1.3419,-1.3428,-1.3423,-1.3426,-1.343,-1.3374,-1.3464,-1.3607,-1.3622,-1.343,-1.3429,-1.3427,0,-1.3457,-1.3482,-1.3523,-1.3525,-1.351,-1.3531,-1.3526,-1.352,-1.3529,-1.3537,-1.3543,-1.3554,-1.3561,-1.3571,-1.3545,-1.351,-1.3595,-1.3541,-1.3588,-1.3589,-1.3611,-1.361,-1.3759,-1.3613,-1.3613,-1.3612,-1.3612,0,-1.3572,-1.3613,-1.3571,-1.3597,-1.3641,-1.3604,-1.365,-1.3639,-1.3635,-1.3658,-1.3615,-1.3639,-1.3601,-1.3621,-1.36,-1.3642,-1.3645,-1.3638,-1.3632,-1.3643,-1.3644,-1.3651,-1.3645,-1.3616,-1.3615,-1.3615,-1.3614,0,-1.37,-1.3673,-1.3715,-1.3697,-1.3693,-1.3727,-1.3712,-1.3735,-1.3718,-1.3748,-1.3753,-1.3727,-1.3747,-1.3721,-1.3739,-1.3725,-1.3783,-1.3767,-1.3784,-1.378,-1.383,-1.3826,-1.399,-1.401,-1.3849,-1.3851,-1.3852,0,-1.3777,-1.3807,-1.3791,-1.3803,-1.38,-1.382,-1.3829,-1.3793,-1.3804,-1.3802,-1.3827,-1.3843,-1.3855,-1.389,-1.3873,-1.3887,-1.3872,-1.3928,-1.3874,-1.3884,-1.3875,-1.3875,-1.3878,-1.3941,-1.3943,-1.3944,-1.3945,0,-1.3917,-1.3901,-1.3914,-1.3923,-1.3934,-1.394,-1.3942,-1.3954,-1.3917,-1.3932,-1.3951,-1.396,-1.3978,-1.3996,-1.4004,-1.4,-1.3968,-1.3962,-1.3974,-1.3987,-1.3996,-1.3994,-1.3817,-1.3959,-1.3958,-1.3957,-1.3956,-1.3956,-1.4023,-1.4047,-1.404,-1.4056,-1.4053,-1.4056,-1.4077,-1.4062,-1.4077,-1.4088,-1.4066,-1.4091,-1.4087,-1.4095,-1.4094,-1.4114,-1.409,-1.4107,-1.4112,-1.4118,-1.4126,-1.3991,-1.4116,-1.4115,-1.4115,-1.4114,-1.4114,0,-1.4162,-1.4154,-1.4169,-1.4173,-1.4186,-1.415,-1.4151,-1.4165,-1.4187,-1.4185,-1.4197,-1.4219,-1.4236,-1.4219,-1.4232,-1.4252,-1.4237,-1.4257,-1.4256,-1.4256,-1.4146,-1.4135,-1.4268,-1.4268,-1.4268,-1.4268,-1.4268,-1.4268,-1.4236,-1.4276,-1.4259,-1.4298,-1.4289,-1.4313,-1.4316,-1.4319,-1.4317,-1.4344,-1.4356,-1.4344,-1.4337,-1.4349,-1.4362,-1.4357,-1.4365,-1.439,-1.438,-1.4279,-1.4264,-1.4249,-1.4239,-1.4392,-1.4392,-1.4489,-1.449,-1.4491]},{"header":{"parameterUnit":"m.s-1","parameterCategory":1,"la1":30.2991,"la2":30.254,"lo1":-89.0895,"lo2":-89.0444,"dy":0.0017,"dx":0.0017,"nx":28,"ny":28,"refTime":"2024-03-23T21:00:00:Z","depth":0,"parameterNumber":3,"parameterNumberName":"V-component_of_WINDS"},"data":[0,0,0,0,0,0,0,0,0,0,0,0,0,0,0,0,0,0,0,0,0,0,0,0,0,0,0,0,0,0,0,0,0,0,0,0,0,0,0,0,0,0,0,0,0,0,0,0,0,0,0,0,0,0,0,0,0,0,-5.1167,-5.1168,0,-5.1301,-5.1303,-5.1304,-5.1253,-5.125,-5.1247,-5.1244,-5.1377,-5.1383,-5.1389,0,0,0,0,0,0,0,0,0,0,0,0,0,-5.0861,-5.0867,-5.1167,-5.1169,-5.117,-5.1301,-5.1303,-5.1305,-5.1254,-5.125,-5.1246,-5.1242,-5.1375,-5.1382,-5.139,0,0,0,0,0,0,0,0,0,0,0,0,0,-5.0994,-5.0869,-5.1167,-5.1161,-5.1161,-5.1301,-5.1303,-5.1305,-5.1254,-5.125,-5.1245,-5.1241,-5.1372,-5.1381,-5.1391,-5.1543,0,0,-5.142,-5.1424,0,0,0,0,0,0,0,0,-5.0987,-5.1006,-5.116,-5.1161,-5.1162,-5.1256,-5.1244,-5.1385,-5.1255,-5.1219,-5.1244,-5.1238,-5.134,-5.1352,-5.1387,-5.1549,-5.1555,-5.1421,-5.1427,-5.1431,-5.1434,0,0,0,0,0,0,0,-5.0978,-5.0999,-5.122,-5.1162,-5.1164,-5.1149,-5.1163,-5.127,-5.1303,-5.1222,-5.1218,-5.1235,-5.134,-5.1378,-5.139,-5.1557,-5.1421,-5.1429,-5.1435,-5.1439,-5.1849,-5.1854,0,0,0,0,0,0,-5.0969,-5.0992,-5.1216,-5.1224,-5.1062,-5.1159,-5.1174,-5.123,-5.1302,-5.1309,-5.1239,-5.1232,-5.1364,-5.1379,-5.1394,-5.1577,-5.1431,-5.144,-5.1445,-5.1844,-5.185,-5.1856,0,0,0,0,0,0,-5.0962,-5.0989,-5.121,-5.1107,-5.1134,-5.1169,-5.1232,-5.1235,-5.1274,-5.1315,-5.132,-5.1272,-5.1361,-5.1381,-5.1507,-5.1581,-5.1444,-5.1453,-5.1838,-5.1846,-5.1853,-5.1944,0,0,0,0,0,0,-5.0954,-5.0987,-5.1046,-5.1109,-5.114,-5.1322,-5.1237,-5.1241,-5.1291,-5.1284,-5.1348,-5.1354,-5.1359,-5.1492,-5.1516,-5.1592,-5.146,-5.1832,-5.1842,-5.1851,-5.1935,-5.1954,-5.1971,0,0,0,0,0,-5.0943,-5.1066,-5.105,-5.1077,-5.1215,-5.1327,-5.1344,-5.1348,-5.1297,-5.1357,-5.1383,-5.1352,-5.1569,-5.1506,-5.1532,-5.1612,-5.1827,-5.1839,-5.185,-5.1927,-5.1951,-5.197,0,0,0,0,0,0,-5.1009,-5.1074,-5.1057,-5.1204,-5.126,-5.1318,-5.1393,-5.1373,-5.1444,-5.1434,-5.1434,-5.1449,-5.1579,-5.1607,-5.1536,-5.1762,-5.169,-5.1707,-5.1739,-5.1762,-5.178,-5.1771,-5.1468,0,0,0,0,0,-5.1041,-5.1128,-5.1179,-5.1303,-5.1333,-5.1358,-5.1407,-5.1405,-5.1463,-5.1486,-5.1522,-5.1578,-5.1658,-5.1711,-5.1788,-5.1938,-5.1951,-5.2006,-5.2024,-5.2038,-5.2054,-5.2135,-5.216,-5.1894,-5.1894,-5.1894,0,0,-5.1107,-5.1153,-5.1208,-5.1318,-5.1362,-5.145,-5.1379,-5.1475,-5.154,-5.15,-5.1622,-5.165,-5.1712,-5.1851,-5.1914,-5.1879,-5.213,-5.2053,-5.2064,-5.2072,-5.215,-5.2175,-5.2197,-5.1902,-5.19,-5.1899,0,0,-5.1274,-5.1318,-5.1427,-5.1472,-5.154,-5.1556,-5.1582,-5.1643,-5.1661,-5.1783,-5.1755,-5.1831,-5.197,-5.2016,-5.2058,-5.2241,-5.2215,-5.2266,-5.236,-5.244,-5.2461,-5.2479,-5.2545,-5.2569,-5.2281,-5.2281,-5.2281,0,-5.1348,-5.1482,-5.1485,-5.1585,-5.1634,-5.1602,-5.1712,-5.1755,-5.1844,-5.1878,-5.1837,-5.2011,-5.2051,-5.22,-5.2245,-5.228,-5.2309,-5.2259,-5.2458,-5.2476,-5.2494,-5.2557,-5.2582,-5.2287,-5.2286,-5.2285,-5.2285,0,-5.157,-5.1663,-5.1743,-5.1831,-5.1889,-5.1993,-5.201,-5.2067,-5.206,-5.208,-5.2204,-5.2251,-5.2337,-5.2371,-5.2364,-5.252,-5.2496,-5.2457,-5.2384,-5.2525,-5.2584,-5.2608,-5.2295,-5.2293,-5.2291,-5.229,0,0,-5.1783,-5.1872,-5.1901,-5.1941,-5.2013,-5.2085,-5.2186,-5.2272,-5.2321,-5.2383,-5.2468,-5.2586,-5.255,-5.2597,-5.2595,-5.2665,-5.2808,-5.2617,-5.2618,-5.2652,-5.2982,-5.3012,-5.304,-5.2791,-5.2795,-5.2799,-5.2977,0,-5.1956,-5.2138,-5.2143,-5.2309,-5.2395,-5.2366,-5.2454,-5.2507,-5.2528,-5.2603,-5.2624,-5.2709,-5.2655,-5.2683,-5.2751,-5.2777,-5.2875,-5.2763,-5.2869,-5.2873,-5.2856,-5.3071,-5.3104,-5.327,-5.3,-5.3004,-5.3007,0,-5.2183,-5.2255,-5.2429,-5.2489,-5.2525,-5.2606,-5.2684,-5.2756,-5.2815,-5.2825,-5.2878,-5.2865,-5.2967,-5.2891,-5.3031,-5.2956,-5.2999,-5.3018,-5.3024,-5.3035,-5.295,-5.3089,-5.3323,-5.3348,-5.3043,-5.3041,-5.3038,0,-5.2323,-5.2462,-5.2584,-5.2619,-5.2692,-5.2749,-5.2781,-5.2836,-5.2887,-5.2955,-5.2987,-5.3065,-5.3108,-5.3168,-5.3176,-5.312,-5.3318,-5.3242,-5.3329,-5.3329,-5.3373,-5.337,-5.3618,-5.3399,-5.3398,-5.3398,-5.3397,0,-5.2517,-5.2625,-5.2648,-5.2724,-5.2844,-5.2848,-5.2965,-5.2993,-5.3042,-5.3121,-5.3099,-5.3174,-5.3179,-5.3255,-5.3262,-5.3377,-5.3396,-5.3407,-5.3408,-5.341,-5.3409,-5.3439,-5.3428,-5.3404,-5.3403,-5.3402,-5.3401,0,-5.2694,-5.2714,-5.2846,-5.2904,-5.2921,-5.3007,-5.3056,-5.3127,-5.3146,-5.3246,-5.327,-5.3298,-5.3387,-5.34,-5.3503,-5.3507,-5.3646,-5.3634,-5.3628,-5.3626,-5.3713,-5.3705,-5.3989,-5.4027,-5.3782,-5.3785,-5.3787,0,-5.2817,-5.29,-5.2968,-5.302,-5.3056,-5.3141,-5.3193,-5.3199,-5.3254,-5.3327,-5.339,-5.3476,-5.3546,-5.3688,-5.3717,-5.3795,-5.3785,-5.388,-5.3797,-5.3797,-5.3788,-5.3783,-5.3792,-5.3896,-5.3899,-5.3901,-5.3902,0,-5.3034,-5.304,-5.3117,-5.3199,-5.3262,-5.3326,-5.3386,-5.3429,-5.3443,-5.3505,-5.3597,-5.3651,-5.3757,-5.3842,-5.392,-5.3951,-5.393,-5.3928,-5.3952,-5.3956,-5.3949,-5.3955,-5.3672,-5.3922,-5.392,-5.3918,-5.3917,-5.3917,-5.3188,-5.3261,-5.332,-5.3407,-5.3453,-5.351,-5.358,-5.3608,-5.3685,-5.3773,-5.3771,-5.3871,-5.3926,-5.4029,-5.4065,-5.4142,-5.4111,-5.4146,-5.4156,-5.4165,-5.4174,-5.3936,-5.4156,-5.4155,-5.4155,-5.4154,-5.4154,0,-5.3405,-5.3442,-5.3522,-5.3607,-5.3675,-5.365,-5.3715,-5.3773,-5.3862,-5.3916,-5.3986,-5.409,-5.4173,-5.4208,-5.4289,-5.4344,-5.4336,-5.4365,-5.4362,-5.437,-5.4196,-5.4167,-5.4371,-5.4371,-5.4371,-5.4371,-5.4371,-5.437,-5.3526,-5.3647,-5.366,-5.3804,-5.3839,-5.3939,-5.3978,-5.403,-5.4073,-5.4192,-5.4261,-5.4284,-5.4331,-5.4415,-5.4489,-5.4497,-5.4528,-5.4563,-5.4566,-5.4404,-5.4382,-5.4361,-5.4334,-5.4569,-5.4569,-5.4733,-5.4735,-5.4736]}]]